This is the latest recevied weather packets stored in our database for station/object KB0RPJ. If no packets are shown the sender has not sent any weather packets the latest 10 day(s).
| Time | Temp. | Humidity | Pressure | Rain* | Wind** | Luminosity | Snow |
|---|---|---|---|---|---|---|---|
| 1777586405 | 15° C | 57% | 1015.1 hPa | 0 mm | - | 182 W/m² | - |
| 1777586104 | 15° C | 57% | 1015.1 hPa | 0 mm | - | 319 W/m² | - |
| 1777585805 | 15° C | 59% | 1015 hPa | 0 mm | - | 174 W/m² | - |
| 1777585504 | 15° C | 58% | 1015 hPa | 0 mm | - | 187 W/m² | - |
| 1777585205 | 15° C | 60% | 1015.1 hPa | 0 mm | - | 246 W/m² | - |
| 1777584905 | 15° C | 64% | 1015.1 hPa | 0 mm | - | 329 W/m² | - |
| 1777584605 | 15° C | 68% | 1015.1 hPa | 0 mm | - | 365 W/m² | - |
| 1777584305 | 15° C | 68% | 1015.1 hPa | 0 mm | - | 315 W/m² | - |
| 1777584005 | 15° C | 67% | 1015.1 hPa | 0 mm | - | 362 W/m² | - |
| 1777583706 | 15° C | 65% | 1015 hPa | 0 mm | - | 111 W/m² | - |
| 1777583418 | 15° C | 62% | 1015 hPa | 0 mm | - | 83 W/m² | - |
| 1777583106 | 15° C | 61% | 1014.9 hPa | 0 mm | - | 131 W/m² | - |
| 1777582805 | 15.56° C | 60% | 1015 hPa | 0 mm | - | 117 W/m² | - |
| 1777582508 | 15.56° C | 59% | 1015 hPa | 0 mm | - | 139 W/m² | - |
| 1777582207 | 16.11° C | 58% | 1015 hPa | 0 mm | - | 221 W/m² | - |
| 1777581905 | 16.11° C | 61% | 1015 hPa | 0 mm | - | 342 W/m² | - |
| 1777581605 | 16.11° C | 59% | 1015 hPa | 0 mm | - | 678 W/m² | - |
| 1777581305 | 16.67° C | 54% | 1015.1 hPa | 0 mm | - | 232 W/m² | - |
| 1777581005 | 17.22° C | 50% | 1015.1 hPa | 0 mm | - | 135 W/m² | - |
| 1777580704 | 17.22° C | 48% | 1014.8 hPa | 0 mm | - | 204 W/m² | - |
| 1777580405 | 17.22° C | 47% | 1014.8 hPa | 0 mm | - | 299 W/m² | - |
| 1777580105 | 17.22° C | 46% | 1014.7 hPa | 0 mm | - | 602 W/m² | - |
| 1777579805 | 17.78° C | 44% | 1014.8 hPa | 0 mm | - | 329 W/m² | - |
| 1777579505 | 17.78° C | 45% | 1014.8 hPa | 0 mm | - | 491 W/m² | - |
| 1777579205 | 17.78° C | 45% | 1014.7 hPa | 0 mm | - | 475 W/m² | - |
* Rain latest hour (hover to see other rain measurements)
** Current wind speed in m/s (hover to see current wind gust speed)